Regional Weather Roundup
Issued by NWS

Home | Current Version | Previous Version | Text Only | Print | Product List | Glossary On
Versions: 1 2 3 4 5 6 7 8 9 10 11 12 13 14 15 16 17 18 19 20 21 22 23 24 25 26 27 28 29 30 31 32 33 34 35 36 37 38 39 40 41 42 43 44 45 46 47 48 49 50
000
ASUS45 KBOI 122110
RWRID

IDAHO REGIONAL WEATHER ROUNDUP
NATIONAL WEATHER SERVICE BOISE ID
200 PM MST FRI FEB 12 2016

NOTE: "FAIR" INDICATES FEW OR NO CLOUDS BELOW 12000 FEET
WITH NO SIGNIFICANT WEATHER AND/OR OBSTRUCTIONS TO VISIBILITY

IDZ012-014-122200-
SOUTHWEST IDAHO


CITY           SKY/WX    TMP DP  RH WIND       PRES   REMARKS
BOISE          CLOUDY    47  34  60 NW7       30.29S
CALDWELL       CLOUDY    44  35  70 W9        30.31F
MOUNTAIN HOME  PTSUNNY   50  30  46 E13       30.26F
$$

IDZ016-017-122200-
SOUTHCENTRAL IDAHO


CITY           SKY/WX    TMP DP  RH WIND       PRES   REMARKS
BURLEY         SUNNY     50  34  54 N8        30.25F
JEROME         SUNNY     37  28  70 NE15      30.27F WCI  28
TWIN FALLS     SUNNY     46  36  68 E6        30.26F
$$

IDZ019>023-122200-
SOUTHEAST IDAHO


CITY           SKY/WX    TMP DP  RH WIND       PRES   REMARKS
IDAHO FALLS    CLOUDY    32  26  78 N6        30.31F WCI  26
POCATELLO      CLOUDY    42  26  53 CALM      30.31F
REXBURG        CLOUDY    41  27  57 CALM      30.29F
$$

IDZ006-010-011-018-031-032-122200-
CENTRAL IDAHO MOUNTAINS


CITY           SKY/WX    TMP DP  RH WIND       PRES   REMARKS
MCCALL         CLOUDY    43  29  57 VRB5      30.23R
HAILEY         MOSUNNY   41  27  56 CALM      30.29F
STANLEY          N/A     37  25  61 CALM      30.26F
SALMON         CLOUDY    34  27  75 CALM      30.25F
CHALLIS        SUNNY     34  25  69 CALM      30.23F
$$

IDZ002-004-006-007-026-122200-
NORTHERN IDAHO


CITY           SKY/WX    TMP DP  RH WIND       PRES   REMARKS
LEWISTON       CLOUDY    52  37  56 E6        30.15F
LOWELL           N/A     51  42  71 CALM      30.21S
COEUR D`ALENE  CLOUDY    45  41  87 NE3       30.12F
MULLAN PASS    CLOUDY    36  35  96 SW6       30.14F WCI  31
$$



USA.gov is the U.S. government's official web portal to all federal, state and local government web resources and services.